TimeCST,TemperatureF,Dew PointF,Humidity,Sea Level PressureIn,VisibilityMPH,Wind Direction,Wind SpeedMPH,Gust SpeedMPH,PrecipitationIn,Events,Conditions,WindDirDegrees,DateUTC
12:54 AM,34.0,21.0,59,29.91,10.0,South,9.2,-,N/A,,Clear,190,2013-02-05 06:54:00
1:54 AM,32.0,21.0,64,29.91,10.0,SSW,6.9,-,N/A,,Clear,210,2013-02-05 07:54:00
2:54 AM,30.0,19.9,66,29.93,10.0,West,6.9,-,N/A,,Clear,270,2013-02-05 08:54:00
3:54 AM,30.0,21.9,72,29.94,10.0,NNW,8.1,-,N/A,,Clear,340,2013-02-05 09:54:00
4:54 AM,26.1,19.0,75,29.95,10.0,North,8.1,-,N/A,,Clear,350,2013-02-05 10:54:00
5:54 AM,33.1,19.9,59,29.96,10.0,NNE,6.9,-,N/A,,Clear,30,2013-02-05 11:54:00
6:54 AM,30.9,19.9,64,29.99,10.0,NE,4.6,-,N/A,,Clear,40,2013-02-05 12:54:00
7:54 AM,28.4,19.4,69,29.98,10.0,NNE,8.1,-,N/A,,Clear,20,2013-02-05 13:54:00
8:54 AM,39.9,25.0,55,30.04,10.0,North,5.8,-,N/A,,Clear,360,2013-02-05 14:54:00
9:54 AM,50.0,25.0,38,30.05,10.0,North,8.1,-,N/A,,Clear,350,2013-02-05 15:54:00
10:54 AM,55.0,21.0,27,30.06,10.0,North,17.3,-,N/A,,Clear,10,2013-02-05 16:54:00
11:54 AM,55.9,21.0,26,30.06,10.0,North,13.8,-,N/A,,Clear,360,2013-02-05 17:54:00
12:54 PM,57.9,21.9,25,30.04,10.0,NNE,11.5,18.4,N/A,,Clear,20,2013-02-05 18:54:00
1:54 PM,60.1,21.0,22,30.01,10.0,NNE,9.2,-,N/A,,Clear,30,2013-02-05 19:54:00
2:54 PM,60.1,21.0,22,30.00,10.0,NNE,8.1,-,N/A,,Clear,30,2013-02-05 20:54:00
3:54 PM,60.1,21.0,22,29.99,10.0,ENE,5.8,-,N/A,,Clear,60,2013-02-05 21:54:00
4:54 PM,60.1,21.0,22,29.99,10.0,East,5.8,-,N/A,,Clear,80,2013-02-05 22:54:00
5:54 PM,54.0,24.1,31,29.98,10.0,ESE,5.8,-,N/A,,Clear,110,2013-02-05 23:54:00
6:54 PM,46.0,23.0,40,30.01,10.0,East,6.9,-,N/A,,Clear,90,2013-02-06 00:54:00
7:54 PM,42.1,23.0,47,30.03,10.0,ESE,9.2,-,N/A,,Clear,110,2013-02-06 01:54:00
8:54 PM,39.2,24.8,56,30.00,10.0,SE,8.1,-,N/A,,Clear,130,2013-02-06 02:54:00
9:54 PM,36.0,24.1,62,30.01,10.0,SSE,8.1,-,N/A,,Clear,150,2013-02-06 03:54:00
10:54 PM,36.0,23.0,59,29.99,10.0,SE,9.2,-,N/A,,Clear,140,2013-02-06 04:54:00
11:54 PM,36.0,23.0,59,29.98,10.0,SSE,10.4,-,N/A,,Clear,150,2013-02-06 05:54:00